CSN3956 ZJHK-ZGSZ

Flight info

Callsign CSN3956
Flight time 0h 56m
Altitude 18700
Route AGTEL9XD AGTEL W71 LH R200 BIGRO W552 LOVTA LOVTA4
Aircraft A320/M-SDE3FGHIRWY/LB1

Departure

Time 2026-04-28 14:28
Airport Haikou Meilan International Airport (ZJHK)

Arrival

Time 2026-04-28 15:24
Airport Shenzhen Bao'an International Airport (ZGSZ)
Time Latitude Longitude Altitude Speed Heading
2026-04-28 14:27 20.24028 110.41800 15949 ft 352 kts 293°
2026-04-28 14:28 20.25341 110.39575 16525 ft 360 kts 307°
2026-04-28 14:28 20.27146 110.37752 17088 ft 368 kts 321°
2026-04-28 14:28 20.29428 110.36412 17654 ft 377 kts 335°
2026-04-28 14:28 20.31934 110.35527 18205 ft 381 kts 338°
2026-04-28 14:29 20.34440 110.34674 18457 ft 384 kts 338°
2026-04-28 14:29 20.36974 110.33812 18525 ft 379 kts 338°
2026-04-28 14:29 20.39473 110.32961 18546 ft 375 kts 338°
2026-04-28 14:29 20.41951 110.32111 18546 ft 374 kts 338°
2026-04-28 14:30 20.44426 110.31258 18549 ft 373 kts 338°
2026-04-28 14:30 20.46898 110.30402 18549 ft 373 kts 338°
2026-04-28 14:30 20.49410 110.29671 18548 ft 377 kts 346°
2026-04-28 14:30 20.52040 110.29464 18549 ft 383 kts 358°
2026-04-28 14:31 20.54705 110.29638 18547 ft 384 kts 360°
2026-04-28 14:31 20.57333 110.29817 18560 ft 384 kts 360°
2026-04-28 14:31 20.59995 110.29994 18552 ft 384 kts 359°
2026-04-28 14:31 20.62662 110.30167 18552 ft 384 kts 359°
2026-04-28 14:32 20.65329 110.30339 18550 ft 384 kts 359°
2026-04-28 14:32 20.67993 110.30510 18549 ft 384 kts 359°
2026-04-28 14:32 20.70659 110.30683 18549 ft 384 kts 359°
2026-04-28 14:32 20.73326 110.30858 18548 ft 384 kts 359°
2026-04-28 14:33 20.75992 110.31031 18549 ft 384 kts 359°
2026-04-28 14:33 20.78656 110.31207 18548 ft 384 kts 359°
2026-04-28 14:33 20.81319 110.31383 18547 ft 384 kts 359°
2026-04-28 14:33 20.83991 110.31559 18547 ft 384 kts 359°
2026-04-28 14:34 20.89281 110.31903 18545 ft 384 kts 359°
2026-04-28 14:34 20.91946 110.32079 18545 ft 384 kts 359°
2026-04-28 14:34 20.93710 110.32196 18545 ft 384 kts 359°
2026-04-28 14:35 20.97271 110.32432 18543 ft 383 kts 359°
2026-04-28 14:35 20.99930 110.32608 18543 ft 383 kts 359°
2026-04-28 14:35 21.02599 110.32769 18543 ft 383 kts 359°
2026-04-28 14:35 21.05260 110.32914 18542 ft 383 kts 359°
2026-04-28 14:36 21.07918 110.33119 18542 ft 385 kts
2026-04-28 14:36 21.10463 110.33949 18540 ft 392 kts 22°
2026-04-28 14:36 21.12745 110.35563 18538 ft 397 kts 40°
2026-04-28 14:36 21.14515 110.37826 18535 ft 399 kts 58°
2026-04-28 14:37 21.15643 110.40542 18533 ft 400 kts 72°
2026-04-28 14:37 21.16485 110.43386 18533 ft 401 kts 72°
2026-04-28 14:37 21.17326 110.46236 18541 ft 401 kts 72°
2026-04-28 14:37 21.18166 110.49087 18541 ft 402 kts 72°
2026-04-28 14:38 21.19009 110.51944 18535 ft 402 kts 72°
2026-04-28 14:38 21.19850 110.54803 18538 ft 403 kts 72°
2026-04-28 14:38 21.20681 110.57626 18531 ft 403 kts 72°
2026-04-28 14:38 21.21526 110.60491 18538 ft 403 kts 72°
2026-04-28 14:39 21.22373 110.63355 18538 ft 403 kts 72°
2026-04-28 14:39 21.23216 110.66221 18534 ft 403 kts 72°
2026-04-28 14:39 21.24058 110.69089 18538 ft 404 kts 72°
2026-04-28 14:39 21.24901 110.71959 18541 ft 404 kts 72°
2026-04-28 14:40 21.25745 110.74828 18549 ft 404 kts 72°
2026-04-28 14:40 21.26020 110.75760 18549 ft 404 kts 72°
2026-04-28 14:40 21.27432 110.80570 18555 ft 404 kts 72°
2026-04-28 14:40 21.28274 110.83441 18553 ft 404 kts 72°
2026-04-28 14:41 21.29105 110.86272 18549 ft 404 kts 72°
2026-04-28 14:41 21.29948 110.89144 18551 ft 404 kts 72°
2026-04-28 14:41 21.30517 110.91082 18552 ft 404 kts 72°
2026-04-28 14:41 21.31629 110.94890 18554 ft 404 kts 72°
2026-04-28 14:42 21.32466 110.97764 18558 ft 404 kts 72°
2026-04-28 14:42 21.33302 111.00639 18558 ft 404 kts 72°
2026-04-28 14:42 21.33858 111.02543 18559 ft 404 kts 72°
2026-04-28 14:42 21.34979 111.06390 18565 ft 404 kts 72°
2026-04-28 14:43 21.35818 111.09266 18564 ft 404 kts 72°
2026-04-28 14:43 21.36644 111.12103 18566 ft 404 kts 72°
2026-04-28 14:43 21.37479 111.14978 18568 ft 404 kts 72°
2026-04-28 14:43 21.38315 111.17857 18571 ft 404 kts 72°
2026-04-28 14:44 21.39151 111.20733 18581 ft 404 kts 72°
2026-04-28 14:44 21.39984 111.23607 18582 ft 403 kts 72°
2026-04-28 14:44 21.40538 111.25510 18584 ft 403 kts 72°
2026-04-28 14:44 21.41658 111.29348 18583 ft 403 kts 72°
2026-04-28 14:45 21.42491 111.32216 18586 ft 403 kts 72°
2026-04-28 14:45 21.43320 111.35088 18592 ft 403 kts 73°
2026-04-28 14:45 21.44137 111.37921 18593 ft 403 kts 72°
2026-04-28 14:45 21.44697 111.39858 18592 ft 402 kts 72°
2026-04-28 14:46 21.45793 111.43659 18589 ft 402 kts 73°
2026-04-28 14:46 21.46620 111.46528 18589 ft 402 kts 73°
2026-04-28 14:46 21.47447 111.49395 18589 ft 402 kts 72°
2026-04-28 14:46 21.48277 111.52266 18588 ft 402 kts 72°
2026-04-28 14:47 21.49105 111.55133 18592 ft 402 kts 73°
2026-04-28 14:47 21.49930 111.58003 18589 ft 402 kts 73°
2026-04-28 14:47 21.50755 111.60873 18591 ft 402 kts 73°
2026-04-28 14:47 21.51579 111.63746 18595 ft 402 kts 73°
2026-04-28 14:48 21.52391 111.66578 18588 ft 402 kts 73°
2026-04-28 14:48 21.53213 111.69447 18591 ft 402 kts 73°
2026-04-28 14:48 21.54037 111.72321 18591 ft 402 kts 73°
2026-04-28 14:48 21.54860 111.75192 18592 ft 402 kts 73°
2026-04-28 14:49 21.55683 111.78065 18596 ft 402 kts 73°
2026-04-28 14:49 21.56508 111.80939 18590 ft 402 kts 73°
2026-04-28 14:49 21.57322 111.83812 18594 ft 402 kts 74°
2026-04-28 14:49 21.58074 111.86706 18598 ft 402 kts 75°
2026-04-28 14:50 21.58542 111.88632 18596 ft 402 kts 76°
2026-04-28 14:50 21.59439 111.92486 18606 ft 402 kts 76°
2026-04-28 14:50 21.60107 111.95399 18603 ft 402 kts 76°
2026-04-28 14:50 21.60782 111.98311 18604 ft 401 kts 76°
2026-04-28 14:51 21.61467 112.01218 18600 ft 401 kts 76°
2026-04-28 14:51 21.61926 112.03141 18600 ft 401 kts 76°
2026-04-28 14:51 21.62861 112.07026 18597 ft 401 kts 76°
2026-04-28 14:51 21.63564 112.09923 18597 ft 401 kts 76°
2026-04-28 14:52 21.64266 112.12825 18597 ft 401 kts 76°
2026-04-28 14:52 21.64965 112.15726 18594 ft 401 kts 76°
2026-04-28 14:52 21.65426 112.17649 18595 ft 401 kts 76°
2026-04-28 14:52 21.66121 112.20550 18593 ft 401 kts 76°
2026-04-28 14:53 21.66813 112.23452 18594 ft 401 kts 76°
2026-04-28 14:53 21.67507 112.26351 18592 ft 401 kts 76°
2026-04-28 14:53 21.68191 112.29211 18595 ft 401 kts 76°
2026-04-28 14:53 21.68886 112.32114 18595 ft 401 kts 76°
2026-04-28 14:54 21.69581 112.35013 18590 ft 400 kts 76°
2026-04-28 14:54 21.70504 112.38891 18592 ft 400 kts 76°
2026-04-28 14:54 21.70960 112.40812 18592 ft 400 kts 76°
2026-04-28 14:54 21.71648 112.43712 18592 ft 400 kts 76°
2026-04-28 14:55 21.72559 112.47550 18586 ft 400 kts 76°
2026-04-28 14:55 21.73249 112.50447 18588 ft 400 kts 76°
2026-04-28 14:55 21.73940 112.53349 18587 ft 400 kts 76°
2026-04-28 14:55 21.74398 112.55271 18588 ft 400 kts 76°
2026-04-28 14:56 21.75085 112.58171 18539 ft 398 kts 76°
2026-04-28 14:56 21.75766 112.61016 18315 ft 389 kts 76°
2026-04-28 14:56 21.76438 112.63807 18082 ft 381 kts 76°
2026-04-28 14:56 21.77098 112.66544 17831 ft 377 kts 76°
2026-04-28 14:57 21.77754 112.69272 17569 ft 375 kts 76°
2026-04-28 14:57 21.78405 112.71979 17314 ft 373 kts 76°
2026-04-28 14:57 21.79054 112.74674 17072 ft 371 kts 76°
2026-04-28 14:57 21.79700 112.77358 16816 ft 370 kts 76°
2026-04-28 14:58 21.80333 112.79995 16576 ft 368 kts 76°
2026-04-28 14:58 21.80970 112.82657 16329 ft 367 kts 76°
2026-04-28 14:58 21.81603 112.85309 16087 ft 365 kts 76°
2026-04-28 14:58 21.82236 112.87952 15841 ft 364 kts 76°
2026-04-28 14:59 21.82865 112.90584 15600 ft 363 kts 76°
2026-04-28 14:59 21.83490 112.93208 15363 ft 361 kts 76°
2026-04-28 14:59 21.84207 112.95793 15128 ft 360 kts 68°
2026-04-28 14:59 21.85414 112.98145 14893 ft 359 kts 53°
2026-04-28 15:00 21.87088 113.00109 14661 ft 356 kts 38°
2026-04-28 15:00 21.89123 113.01598 14433 ft 352 kts 24°
2026-04-28 15:00 21.91337 113.02599 14205 ft 349 kts 18°
2026-04-28 15:00 21.93600 113.03540 13973 ft 349 kts 18°
2026-04-28 15:01 21.95858 113.04487 13752 ft 347 kts 18°
2026-04-28 15:01 21.98101 113.05431 13507 ft 346 kts 18°
2026-04-28 15:01 22.00342 113.06377 13253 ft 345 kts 19°
2026-04-28 15:01 22.02570 113.07317 12999 ft 343 kts 18°
2026-04-28 15:02 22.04790 113.08252 12753 ft 342 kts 18°
2026-04-28 15:02 22.07000 113.09182 12504 ft 340 kts 18°
2026-04-28 15:02 22.09146 113.10247 12251 ft 341 kts 30°
2026-04-28 15:02 22.10982 113.11799 12004 ft 339 kts 44°
2026-04-28 15:03 22.12435 113.13790 11618 ft 339 kts 59°
2026-04-28 15:03 22.13459 113.16073 11200 ft 339 kts 66°
2026-04-28 15:03 22.14414 113.18401 10767 ft 339 kts 66°
2026-04-28 15:03 22.15373 113.20727 10343 ft 340 kts 66°
2026-04-28 15:04 22.16507 113.22952 9960 ft 338 kts 53°
2026-04-28 15:04 22.18050 113.24796 9841 ft 326 kts 39°
2026-04-28 15:04 22.19811 113.26254 9724 ft 313 kts 26°
2026-04-28 15:04 22.21801 113.26974 9588 ft 295 kts
2026-04-28 15:05 22.23758 113.26845 9390 ft 280 kts 340°
2026-04-28 15:05 22.25478 113.25968 9089 ft 271 kts 318°
2026-04-28 15:05 22.26863 113.24629 8864 ft 265 kts 312°
2026-04-28 15:05 22.28201 113.23282 8841 ft 263 kts 313°
2026-04-28 15:06 22.29559 113.21950 8847 ft 265 kts 317°
2026-04-28 15:06 22.31125 113.20881 8849 ft 268 kts 327°
2026-04-28 15:06 22.32770 113.19927 8852 ft 268 kts 327°
2026-04-28 15:06 22.34414 113.18969 8849 ft 268 kts 327°
2026-04-28 15:07 22.36059 113.18013 8839 ft 269 kts 328°
2026-04-28 15:07 22.37825 113.17404 8718 ft 275 kts 352°
2026-04-28 15:07 22.39731 113.17648 8586 ft 281 kts 18°
2026-04-28 15:07 22.41374 113.18789 8459 ft 285 kts 46°
2026-04-28 15:08 22.42388 113.20608 8348 ft 284 kts 72°
2026-04-28 15:08 22.43003 113.22640 8217 ft 285 kts 73°
2026-04-28 15:08 22.43614 113.24676 8101 ft 284 kts 73°
2026-04-28 15:08 22.44226 113.26709 7976 ft 284 kts 73°
2026-04-28 15:09 22.44838 113.28730 7859 ft 284 kts 73°
2026-04-28 15:09 22.45453 113.30753 7735 ft 283 kts 73°
2026-04-28 15:09 22.46059 113.32744 7622 ft 282 kts 73°
2026-04-28 15:09 22.46673 113.34760 7499 ft 282 kts 73°
2026-04-28 15:10 22.47284 113.36771 7376 ft 280 kts 73°
2026-04-28 15:10 22.47880 113.38724 7254 ft 268 kts 73°
2026-04-28 15:10 22.48455 113.40604 7131 ft 260 kts 73°
2026-04-28 15:10 22.49015 113.42446 7017 ft 257 kts 73°
2026-04-28 15:11 22.49569 113.44278 6878 ft 256 kts 73°
2026-04-28 15:11 22.50121 113.46108 6772 ft 255 kts 74°
2026-04-28 15:11 22.50669 113.47931 6667 ft 255 kts 73°
2026-04-28 15:11 22.51217 113.49745 6537 ft 254 kts 73°
2026-04-28 15:12 22.51759 113.51534 6433 ft 253 kts 74°
2026-04-28 15:12 22.52365 113.53321 6325 ft 254 kts 63°
2026-04-28 15:12 22.53420 113.54836 6208 ft 253 kts 41°
2026-04-28 15:12 22.54882 113.55871 6086 ft 251 kts 20°
2026-04-28 15:13 22.56558 113.56313 5967 ft 247 kts 360°
2026-04-28 15:13 22.58279 113.56380 5845 ft 248 kts 359°
2026-04-28 15:13 22.60004 113.56446 5696 ft 249 kts 359°
2026-04-28 15:13 22.61723 113.56517 5495 ft 246 kts 359°
2026-04-28 15:14 22.63440 113.56588 5450 ft 247 kts 359°
2026-04-28 15:14 22.65137 113.56658 5395 ft 247 kts 359°
2026-04-28 15:14 22.66855 113.56729 5345 ft 248 kts 359°
2026-04-28 15:14 22.68585 113.56802 5292 ft 248 kts 359°
2026-04-28 15:15 22.70296 113.56876 5235 ft 242 kts 359°
2026-04-28 15:15 22.71940 113.56948 5183 ft 231 kts 359°
2026-04-28 15:15 22.73516 113.57018 5113 ft 225 kts 359°
2026-04-28 15:15 22.75065 113.57074 4850 ft 227 kts 358°
2026-04-28 15:16 22.76647 113.57119 4548 ft 230 kts 359°
2026-04-28 15:16 22.78262 113.57160 4226 ft 233 kts 359°
2026-04-28 15:16 22.79893 113.57205 3909 ft 235 kts 360°
2026-04-28 15:16 22.81529 113.57272 3582 ft 235 kts
2026-04-28 15:17 22.83038 113.57890 3264 ft 232 kts 39°
2026-04-28 15:17 22.84035 113.59178 3121 ft 218 kts 65°
2026-04-28 15:17 22.84728 113.60628 2866 ft 216 kts 66°
2026-04-28 15:17 22.85414 113.62063 2622 ft 213 kts 66°
2026-04-28 15:18 22.86092 113.63475 2393 ft 210 kts 66°
2026-04-28 15:18 22.86516 113.64911 2298 ft 194 kts 97°
2026-04-28 15:18 22.86133 113.66238 2311 ft 181 kts 132°
2026-04-28 15:18 22.85170 113.67015 2319 ft 176 kts 159°
2026-04-28 15:19 22.84071 113.67613 2314 ft 177 kts 155°
2026-04-28 15:19 22.82982 113.68236 2315 ft 177 kts 156°
2026-04-28 15:19 22.81891 113.68845 2317 ft 176 kts 156°
2026-04-28 15:19 22.80783 113.69457 2320 ft 176 kts 156°
2026-04-28 15:20 22.79688 113.70060 2318 ft 177 kts 156°
2026-04-28 15:20 22.78608 113.70654 2341 ft 176 kts 156°
2026-04-28 15:20 22.77517 113.71254 2337 ft 176 kts 156°
2026-04-28 15:20 22.76420 113.71857 2210 ft 176 kts 156°
2026-04-28 15:21 22.75329 113.72457 2017 ft 175 kts 156°
2026-04-28 15:21 22.74269 113.73040 1807 ft 166 kts 156°
2026-04-28 15:21 22.73275 113.73587 1617 ft 154 kts 156°
2026-04-28 15:21 22.72350 113.74095 1429 ft 142 kts 155°
2026-04-28 15:22 22.71490 113.74567 1237 ft 137 kts 155°
2026-04-28 15:22 22.70657 113.75024 1061 ft 134 kts 154°
2026-04-28 15:22 22.69827 113.75480 904 ft 134 kts 153°
2026-04-28 15:22 22.68996 113.75936 742 ft 135 kts 153°
2026-04-28 15:23 22.68150 113.76399 571 ft 135 kts 154°
2026-04-28 15:23 22.67325 113.76859 370 ft 135 kts 152°
2026-04-28 15:23 22.66484 113.77316 228 ft 136 kts 154°
2026-04-28 15:23 22.65641 113.77776 41 ft 135 kts 153°
2026-04-28 15:24 22.64909 113.78177 16 ft 84 kts 153°
2026-04-28 15:24 22.64656 113.78316 16 ft 5 kts 153°
2026-04-28 15:24 22.64556 113.78375 16 ft 20 kts 149°
2026-04-28 15:24 22.64452 113.78482 16 ft 21 kts 125°
2026-04-28 15:25 22.64383 113.78618 16 ft 18 kts 86°
2026-04-28 15:25 22.64426 113.78654 16 ft 5 kts 347°
2026-04-28 15:25 22.64467 113.78634 17 ft 11 kts 330°
2026-04-28 15:25 22.64531 113.78600 16 ft 10 kts 335°
2026-04-28 15:26 22.64631 113.78546 16 ft 28 kts 333°
2026-04-28 15:26 22.64815 113.78449 16 ft 30 kts 333°
2026-04-28 15:26 22.65008 113.78342 16 ft 32 kts 334°
2026-04-28 15:26 22.65209 113.78230 16 ft 33 kts 333°
2026-04-28 15:27 22.65419 113.78117 17 ft 34 kts 333°
2026-04-28 15:27 22.65637 113.77998 17 ft 35 kts 333°
2026-04-28 15:27 22.65842 113.77882 16 ft 33 kts 332°
2026-04-28 15:27 22.65991 113.77792 16 ft 13 kts 355°
2026-04-28 15:28 22.66072 113.77820 16 ft 18 kts 14°
2026-04-28 15:28 22.66175 113.77876 18 ft 16 kts 60°
2026-04-28 15:28 22.66229 113.77984 16 ft 17 kts 64°
2026-04-28 15:28 22.66281 113.78097 16 ft 17 kts 63°
2026-04-28 15:29 22.66338 113.78217 16 ft 19 kts 63°
2026-04-28 15:29 22.66317 113.78335 17 ft 17 kts 155°
2026-04-28 15:29 22.66211 113.78390 16 ft 18 kts 151°
2026-04-28 15:29 22.66096 113.78454 16 ft 20 kts 153°
2026-04-28 15:30 22.65969 113.78524 16 ft 21 kts 152°
2026-04-28 15:30 22.65834 113.78597 16 ft 22 kts 153°
2026-04-28 15:30 22.65690 113.78676 16 ft 24 kts 152°
2026-04-28 15:30 22.65541 113.78756 16 ft 24 kts 154°
2026-04-28 15:31 22.65393 113.78839 16 ft 24 kts 153°
2026-04-28 15:31 22.65239 113.78921 17 ft 26 kts 152°
2026-04-28 15:31 22.65074 113.79012 16 ft 28 kts 153°
2026-04-28 15:31 22.64896 113.79109 16 ft 30 kts 150°
2026-04-28 15:32 22.64708 113.79208 16 ft 28 kts 154°
2026-04-28 15:32 22.64540 113.79307 16 ft 25 kts 154°
2026-04-28 15:32 22.64387 113.79388 16 ft 24 kts 149°
2026-04-28 15:32 22.64237 113.79472 16 ft 24 kts 153°
2026-04-28 15:33 22.64092 113.79553 16 ft 23 kts 153°
2026-04-28 15:33 22.63953 113.79630 16 ft 22 kts 154°
2026-04-28 15:33 22.63821 113.79701 16 ft 20 kts 152°
2026-04-28 15:33 22.63705 113.79766 15 ft 18 kts 153°
2026-04-28 15:34 22.63594 113.79824 15 ft 15 kts 155°
2026-04-28 15:34 22.63513 113.79871 17 ft 13 kts 150°
2026-04-28 15:34 22.63408 113.79929 16 ft 20 kts 153°
2026-04-28 15:34 22.63281 113.79997 15 ft 21 kts 154°
2026-04-28 15:35 22.63198 113.80069 17 ft 9 kts 116°
2026-04-28 15:35 22.63150 113.80122 16 ft 5 kts 116°
2026-04-28 15:35 22.63160 113.80141 15 ft 4 kts 67°
2026-04-28 15:36 22.63167 113.80145 17 ft 1 kts 14°
2026-04-28 15:36 22.63207 113.80133 15 ft 8 kts 338°
2026-04-28 15:36 22.63252 113.80122 15 ft 6 kts 10°
2026-04-28 15:36 22.63281 113.80156 15 ft 8 kts 62°
2026-04-28 15:37 22.63308 113.80215 15 ft 10 kts 63°
2026-04-28 15:37 22.63341 113.80288 15 ft 12 kts 64°
2026-04-28 15:37 22.63365 113.80357 15 ft 6 kts 91°
2026-04-28 15:37 22.63359 113.80387 15 ft 0 kts 102°
2026-04-28 15:38 22.63359 113.80390 15 ft 1 kts 102°
2026-04-28 15:38 22.63358 113.80396 15 ft 1 kts 102°
2026-04-28 15:38 22.63357 113.80397 15 ft 0 kts 102°